Weather History for Rocky Mount, NC

Change the Weather History Date:

Thursday, March 7, 2013

  Actual Average Record
Temperature  
Mean Temperature 42 °F -  
Max Temperature 50 °F 59 °F 122 °F (2002)
Min Temperature 34 °F 38 °F 20 °F (1960)
Degree Days  
Heating Degree Days 23    
Moisture  
Dew Point 28 °F    
Average Humidity 55    
Maximum Humidity 79    
Minimum Humidity 43    
Precipitation  
Precipitation 0.00 in - - ()
Sea Level Pressure  
Sea Level Pressure 30.12 in    
Wind  
Wind Speed 10 mph (NW)    
Max Wind Speed 17 mph    
Max Gust Speed 28 mph    
Visibility 10 miles    
Events      
Averages and records for this station are not official NWS values.
T = Trace of Precipitation, MM = Missing Value Source: NWS Daily Summary

Daily Weather History Graph

Daily Weather History Graph

Search for Another Location

Airport:

Trip Planner

Search our weather history database for the weather conditions in past years. The results will help you decide how hot, cold, wet, or windy it might be!

Date:

Astronomy

Mar. 07, 2013 Rise Set
Actual Time 6:33 AM EST 6:12 PM EST
Civil Twilight 6:07 AM EST 6:37 PM EST
Nautical Twilight 5:38 AM EST 7:07 PM EST
Astronomical Twilight 5:08 AM EST 7:37 PM EST
Moon 3:24 AM EST (3/7) 2:04 PM EST (3/7)
Length of Visible Light 12h 30m
Length of Day
11h 39m
Waning Crescent, 20% of the Moon is Illuminated
Mar 7
Waning Crescent
Mar 11
New
Mar 19
First Quarter
Mar 27
Full
Apr 3
Last Quarter

Hourly Weather History & Observations

Time (EST) Temp. Windchill Dew Point Humidity Pressure Visibility Wind Dir Wind Speed Gust Speed Precip Events Conditions
12:53 AM 39.0 °F 32.3 °F 28.0 °F 65% 29.99 in 10.0 mi NW 10.4 mph - N/A   Clear
1:53 AM 37.9 °F 31.5 °F 28.0 °F 68% 30.01 in 10.0 mi NW 9.2 mph - N/A   Clear
2:53 AM 37.9 °F 32.1 °F 28.0 °F 68% 30.02 in 10.0 mi NW 8.1 mph - N/A   Clear
3:53 AM 37.9 °F 30.9 °F 28.0 °F 68% 30.04 in 10.0 mi NW 10.4 mph - N/A   Clear
4:53 AM 37.0 °F 31.0 °F 28.0 °F 70% 30.04 in 10.0 mi NNW 8.1 mph - N/A   Clear
5:53 AM 35.1 °F 30.1 °F 28.0 °F 76% 30.08 in 10.0 mi WNW 5.8 mph - N/A   Clear
6:53 AM 34.0 °F 29.8 °F 28.0 °F 79% 30.09 in 10.0 mi West 4.6 mph - N/A   Clear
7:53 AM 39.0 °F 33.4 °F 28.9 °F 67% 30.13 in 10.0 mi WNW 8.1 mph - N/A   Clear
8:53 AM 44.1 °F 38.1 °F 30.0 °F 58% 30.14 in 10.0 mi NW 11.5 mph - N/A   Clear
9:53 AM 48.0 °F - 28.0 °F 46% 30.15 in 10.0 mi North 15.0 mph 24.2 mph N/A   Clear
10:53 AM 48.0 °F - 28.0 °F 46% 30.14 in 10.0 mi North 17.3 mph 27.6 mph N/A   Mostly Cloudy
11:53 AM 48.9 °F - 28.0 °F 44% 30.14 in 10.0 mi NNW 12.7 mph 21.9 mph N/A   Overcast
12:53 PM 50.0 °F - 28.0 °F 43% 30.12 in 10.0 mi NNW 16.1 mph 24.2 mph N/A   Overcast
1:53 PM 50.0 °F - 28.0 °F 43% 30.10 in 10.0 mi NW 16.1 mph 25.3 mph N/A   Overcast
2:53 PM 50.0 °F - 28.0 °F 43% 30.11 in 10.0 mi WNW 12.7 mph - N/A   Overcast
3:53 PM 48.9 °F - 28.0 °F 44% 30.11 in 10.0 mi NW 10.4 mph - N/A   Overcast
4:53 PM 48.9 °F - 28.0 °F 44% 30.12 in 10.0 mi NW 10.4 mph - N/A   Overcast
5:53 PM 48.0 °F - 28.9 °F 48% 30.14 in 10.0 mi NW 5.8 mph - N/A   Overcast
6:53 PM 46.9 °F - 28.0 °F 48% 30.17 in 10.0 mi NNW 8.1 mph - N/A   Overcast
7:53 PM 46.0 °F 42.5 °F 28.9 °F 51% 30.19 in 10.0 mi NNW 6.9 mph - N/A   Overcast
8:53 PM 44.1 °F 37.1 °F 26.1 °F 49% 30.20 in 10.0 mi North 15.0 mph - N/A   Overcast
9:53 PM 41.0 °F 37.1 °F 24.1 °F 51% 30.21 in 10.0 mi NNW 5.8 mph - N/A   Partly Cloudy
10:53 PM 39.9 °F 35.1 °F 25.0 °F 55% 30.21 in 10.0 mi NW 6.9 mph - N/A   Clear
11:53 PM 37.9 °F 33.5 °F 24.1 °F 57% 30.20 in 10.0 mi WNW 5.8 mph - N/A   Clear